STARLINK-5579, 55746

Orbit data source: Space-Track

STARLINK-5579, 55746 is a payload satellite owned by SpaceX/Seattle (US) in LEO that was launched on Fri, 03 Mar 2023 UTC via an FALCON 9 launch vehicle from the Air Force Western Test Range (AFWTR). Payload-class satellites include a variety of spacecraft equipped with specific instruments for various scientific and technological missions. These include communications satellites like Starlink; space stations such as the ISS; scientific satellites like the Hubble; Earth observation satellites from companies like Planet Labs, Umbra, and HawkEye 360; GPS; miniature CubeSats for education and research; and military/defense satellites.

Loading next visibility...
Identifier
55746, 2023-028F
Orbit
LEO
Country
Flag of USUS
Related business
Manufacturer
SpaceX/Seattle
Mission
Operational Commercial Communications
Bus & Motor
STARLINK, Unknown motor
Mass
305 kg wet, ~290 kg dry
Launch date (UTC)
2023-03-03 (3 years ago)
Launch vehicle
FALCON 9
Launch site
Air Force Western Test Range (AFWTR)
Object type
Payload
Rocket body
Debris
Shape & HBR
Box + 1 Pan, 10.1 m
Radar Cross Section
11.087 m², Large (>1 m²)

Expand to show TLE details & history
Last TLE update: 3 days ago

TLE from 3 days ago
0 STARLINK-5579
1 55746U 23028F   26170.91663213  .00000534  00000-0  52523-4 0  9992
2 55746  69.9997 346.6715 0002860 265.9901  94.0931 14.98335474181350
Epoch: 2026-06-19T21:59Z
TLE epoch observation values (Epoch: 2026-06-19T21:59:57.016Z)
Latitude
-0.00001°
Longitude
108.54519°
Altitude
574.605 km
Speed
7.574 km/s
True Right ascension
23h 06m 41s
True Declination
0° 00' 00"
Sunlit
Object was in daylight at epoch
Visualization orbit readout
Latitude
Unknown
Longitude
Unknown
Altitude
Unknown
Speed
Unknown
Apparent Right ascension
Unknown
Apparent Declination
Unknown
Sunlit
N/A
Visualization observer readout
Local Sidereal Time
21:27:54
Azimuth
Unknown
Elevation
Unknown
Doppler factor
Unknown
Orbital elements
Apogee altitude
571.974 km
Perigee altitude
568 km
Semi-major axis
6,948.124 km
Eccentricity
0.00029
Inclination
69.9997°
RAAN
346.6715°
Arg. of periapsis
265.9901°
True anomaly
94.12579°
Mean anomaly
94.0931°
Eccentric anomaly
94.10944°
Mean motion
3.7475 °/min
Orbital period
96.06 mins
BSTAR
0.000052523
Loading maneuver chart data...
Computing Atmospheric mass density...
Loading historical data...
Loading historical data...
Loading historical data...
Loading historical data...
Loading historical data...
Loading historical data...
Loading historical data...

Documentation

Showing up to 5 results
|